Minneapolis Flying Cloud, MN

1:28 AM CDT on March 25, 2017 (GMT -0500)
Flying Cloud

Weather History for KFCM - October, 2013

Change the Weather History Date:

Friday, October 18, 2013

  Actual Average Record
Temperature  
Mean Temperature 45 °F -  
Max Temperature 54 °F 56 °F 79 °F (2005)
Min Temperature 37 °F 37 °F 32 °F (1999)
Degree Days  
Heating Degree Days 20    
Moisture  
Dew Point 36 °F    
Average Humidity 74    
Maximum Humidity 93    
Minimum Humidity 38    
Precipitation  
Precipitation 0.04 in - - ()
Sea Level Pressure  
Sea Level Pressure 29.91 in    
Wind  
Wind Speed 9 mph (WNW)    
Max Wind Speed 14 mph    
Max Gust Speed 18 mph    
Visibility 10 miles    
Events Rain    
Averages and records for this station are not official NWS values.
T = Trace of Precipitation, MM = Missing Value Source: NWS Daily Summary

Daily Weather History Graph

Daily Weather History Graph

Search for Another Location

Airport or City:

Trip Planner

Search our weather history database for the weather conditions in past years. The results will help you decide how hot, cold, wet, or windy it might be!

Date:

Astronomy

Oct. 18, 2013 Rise Set
Actual Time 7:33 AM CDT 6:23 PM CDT
Civil Twilight 7:03 AM CDT 6:53 PM CDT
Nautical Twilight 6:29 AM CDT 7:27 PM CDT
Astronomical Twilight 5:56 AM CDT 8:00 PM CDT
Moon 6:12 PM CDT (10/18) 7:09 AM CDT (10/18)
Length of Visible Light 11h 49m
Length of Day
10h 49m
Full, 100% of the Moon is Illuminated
Oct 18
Full
Oct 18
Full
Oct 26
Last Quarter
Nov 3
New
Nov 9
First Quarter

Hourly Weather History & Observations

Time (CDT) Temp. Windchill Dew Point Humidity Pressure Visibility Wind Dir Wind Speed Gust Speed Precip Events Conditions
12:05 AM 44.6 °F 40.2 °F 41.0 °F 87% 29.85 in 10.0 mi NW 8.1 mph - 0.00 in Rain Light Rain
12:53 AM 43.0 °F 37.2 °F 39.9 °F 89% 29.86 in 10.0 mi NW 10.4 mph - 0.01 in Rain Light Rain
1:53 AM 42.1 °F 36.6 °F 39.9 °F 92% 29.88 in 10.0 mi NNW 9.2 mph - 0.02 in Rain Light Rain
2:37 AM 42.8 °F 37.5 °F 39.2 °F 87% 29.88 in 10.0 mi NNW 9.2 mph - 0.01 in Rain Light Rain
2:48 AM 42.8 °F 38.0 °F 39.2 °F 87% 29.88 in 10.0 mi NNW 8.1 mph - 0.01 in Rain Light Rain
2:53 AM 42.1 °F 36.1 °F 37.9 °F 85% 29.89 in 10.0 mi NNW 10.4 mph - 0.01 in   Overcast
3:04 AM 42.8 °F 38.0 °F 39.2 °F 87% 29.88 in 10.0 mi NNW 8.1 mph - N/A   Overcast
3:49 AM 42.8 °F 37.5 °F 39.2 °F 87% 29.88 in 10.0 mi NNW 9.2 mph - 0.00 in   Overcast
3:53 AM 42.1 °F 35.7 °F 39.0 °F 89% 29.89 in 10.0 mi NNW 11.5 mph - 0.00 in   Overcast
4:04 AM 42.8 °F 38.0 °F 39.2 °F 87% 29.88 in 10.0 mi NW 8.1 mph - 0.00 in Rain Light Rain
4:41 AM 42.8 °F 36.6 °F 39.2 °F 87% 29.89 in 10.0 mi NW 11.5 mph - 0.00 in   Overcast
4:48 AM 42.8 °F 37.5 °F 39.2 °F 87% 29.89 in 10.0 mi NW 9.2 mph - 0.00 in   Overcast
4:53 AM 43.0 °F 36.8 °F 39.0 °F 86% 29.91 in 10.0 mi NW 11.5 mph 18.4 mph 0.00 in   Overcast
5:49 AM 41.0 °F 34.7 °F 37.4 °F 87% 29.90 in 10.0 mi NW 10.4 mph - N/A   Scattered Clouds
5:53 AM 41.0 °F 35.8 °F 37.9 °F 89% 29.92 in 10.0 mi NW 8.1 mph - N/A   Partly Cloudy
6:53 AM 39.0 °F 34.0 °F 37.0 °F 93% 29.95 in 10.0 mi WNW 6.9 mph - N/A   Partly Cloudy
7:53 AM 37.9 °F 35.5 °F 36.0 °F 93% 29.97 in 10.0 mi West 3.5 mph - N/A   Clear
8:53 AM 42.1 °F 36.6 °F 37.0 °F 82% 29.98 in 10.0 mi WNW 9.2 mph - N/A   Clear
9:53 AM 45.0 °F 40.1 °F 37.0 °F 74% 29.98 in 10.0 mi WNW 9.2 mph - N/A   Clear
10:53 AM 48.0 °F - 35.1 °F 61% 29.99 in 10.0 mi NW 10.4 mph - N/A   Clear
11:53 AM 50.0 °F - 32.0 °F 50% 29.98 in 10.0 mi NW 13.8 mph - N/A   Clear
12:53 PM 50.0 °F - 30.0 °F 46% 29.97 in 10.0 mi WNW 11.5 mph - N/A   Partly Cloudy
1:53 PM 52.0 °F - 28.0 °F 40% 29.95 in 10.0 mi WNW 8.1 mph 18.4 mph N/A   Partly Cloudy
2:53 PM 53.1 °F - 28.0 °F 38% 29.92 in 10.0 mi West 9.2 mph - N/A   Partly Cloudy
3:53 PM 50.0 °F - 28.9 °F 44% 29.93 in 10.0 mi WSW 6.9 mph - N/A   Mostly Cloudy
4:53 PM 48.0 °F - 34.0 °F 58% 29.93 in 7.0 mi Variable 5.8 mph - 0.00 in Rain Light Rain
5:53 PM 48.9 °F - 30.9 °F 50% 29.92 in 10.0 mi WSW 3.5 mph - 0.00 in   Mostly Cloudy
6:53 PM 46.0 °F 44.8 °F 32.0 °F 58% 29.91 in 10.0 mi SSW 3.5 mph - N/A   Partly Cloudy
7:53 PM 42.1 °F 38.4 °F 33.1 °F 70% 29.91 in 10.0 mi SW 5.8 mph - N/A   Clear
8:53 PM 42.1 °F 38.4 °F 33.1 °F 70% 29.89 in 10.0 mi SW 5.8 mph - N/A   Partly Cloudy
9:53 PM 42.1 °F 39.2 °F 33.1 °F 70% 29.88 in 10.0 mi WSW 4.6 mph - N/A   Mostly Cloudy
10:53 PM 43.0 °F 38.2 °F 32.0 °F 65% 29.87 in 10.0 mi West 8.1 mph - N/A   Overcast
11:53 PM 43.0 °F 40.3 °F 36.0 °F 76% 29.85 in 10.0 mi WNW 4.6 mph - N/A   Scattered Clouds